#timestamp,LO_Frequency,Hit,StdDev 
1550250015.4,286046995.2,N
1550250035.2,286046996.5,N
1550250055.0,286046999.2,N
1550250055.9,286046999.2,N
1550250075.8,286046998.6,N
1550250095.6,286046997.6,N
1550250115.4,286046998.2,N
1550250135.3,286047005.8,N
1550250155.1,286047006.4,N
1550250175.9,286047006.0,N
1550250195.7,286047004.0,N
1550250215.5,286047007.5,N
1550250235.4,286047005.3,N
1550250255.2,286047005.0,N
1550250275.1,286047005.3,N
1550250276.0,286047005.3,N
1550250295.8,286047006.2,N
1550250315.6,286047010.7,N
1550250335.5,286047008.4,N
1550250355.3,286047010.6,N
1550250375.2,286047011.8,N
1550250395.9,286047011.7,N
1550250415.7,286047009.9,N
1550250435.6,286047009.3,N
1550250455.4,286047011.6,N
1550250475.2,286047011.6,N
1550250495.1,286047010.3,N
1550250496.0,286047010.3,N
1550250515.8,286047009.5,N
1550250535.7,286047009.8,N
1550250555.5,286047009.5,N
1550250575.3,286047009.4,N
1550250595.2,286047011.6,N
1550250615.0,286047012.0,N
1550250615.9,286047012.0,Y
1550250635.8,286047001.7,P
1550250655.6,286047003.0,N
1550250675.4,286047005.2,N
1550250695.3,286047003.4,N
1550250715.1,286047006.6,Y
1550250735.8,286047001.4,P
1550250755.7,286047004.4,P
1550250775.5,286047002.0,N
1550250795.4,286047002.2,N
1550250815.2,286047001.7,N
1550250835.0,286047004.9,Y
1550250835.9,286047004.9,P
1550250855.8,286047003.4,N
1550250875.6,286047005.9,P
1550250895.5,286047003.1,N
1550250915.3,286047005.3,Y
1550250935.1,286047002.1,P
1550250955.9,286047011.9,P
1550250975.7,286047006.8,N
1550250995.6,286047007.5,N
1550251015.4,286047006.3,N
1550251035.2,286047006.4,N
1550251055.1,286047008.0,N
1550251056.0,286047008.0,N
1550251075.8,286047010.6,Y
1550251095.6,286047003.5,P
1550251115.5,286047002.9,N
1550251135.3,286047005.1,N
1550251155.2,286047004.6,Y
1550251175.0,286047000.1,P
1550251175.9,286047000.1,N
1550251195.7,286047001.0,N
1550251215.6,286047000.9,N
1550251235.4,286046998.3,N
1550251255.3,286046998.8,N
1550251275.1,286047000.0,N
1550251276.0,286047000.0,N
1550251295.8,286047002.4,N
1550251315.7,286047004.4,N
1550251335.5,286047001.4,N
1550251355.4,286047003.2,N
1550251375.2,286047002.0,N
1550251395.0,286047003.1,N
1550251395.9,286047003.1,N
1550251415.8,286047006.0,Y
1550251435.6,286047003.8,P
1550251455.4,286047003.1,N
1550251475.3,286047004.7,P
1550251495.1,286047007.2,Y
1550251515.9,286047003.7,P
1550251535.7,286047007.1,P
1550251555.5,286047006.8,P
1550251575.4,286047008.4,Y
1550251595.2,286047004.5,P
1550251615.1,286047007.3,P
1550251616.0,286047007.3,P
1550251635.8,286047004.6,Y
1550251655.6,286046995.1,P
1550251675.5,286046999.5,N
1550251695.3,286046998.5,N
1550251715.2,286046999.4,N
1550251735.9,286046997.2,N
1550251755.7,286046996.5,N
1550251775.6,286046995.3,N
1550251795.4,286046993.9,N
1550251815.2,286046999.3,N
1550251835.1,286047000.8,N
1550251836.0,286047000.8,N
1550251855.8,286046999.9,N
1550251875.7,286047000.4,N
1550251895.5,286047000.2,N
1550251915.3,286047000.4,N
1550251935.2,286047002.4,N
1550251955.0,286047000.6,N
1550251955.9,286047000.6,N
1550251975.8,286047002.1,N
1550251995.6,286047003.7,N
1550252015.4,286047003.6,N
1550252035.3,286047005.1,N
1550252055.1,286047002.8,N
1550252075.8,286047004.7,N
1550252095.7,286047008.2,N
1550252115.5,286047008.8,N
1550252135.4,286047008.5,N
1550252155.2,286047009.4,N
1550252175.0,286047008.4,N
1550252175.9,286047008.4,N
1550252195.8,286047008.6,N
1550252215.6,286047008.4,N
1550252235.5,286047010.5,N
1550252255.3,286047009.9,N
1550252275.1,286047011.6,N
1550252295.9,286047009.5,N
1550252315.7,286047013.4,N
1550252335.5,286047012.1,N
1550252355.4,286047010.9,N
1550252375.2,286047015.2,Y
1550252395.1,286047004.7,P
1550252396.0,286047004.7,P
1550252415.8,286047009.2,P
1550252435.6,286047012.2,Y
1550252455.5,286047003.3,P
1550252475.3,286047008.7,P
1550252495.2,286047009.0,P
1550252515.0,286047008.4,Y
1550252515.9,286047008.4,P
1550252535.7,286047001.6,N
1550252555.6,286047004.0,N
1550252575.4,286047006.8,N
1550252595.3,286047007.9,Y
1550252615.1,286047002.0,P
1550252635.8,286047000.1,N
1550252655.7,286046999.9,N
1550252675.5,286046998.3,N
1550252695.4,286047002.9,N
1550252715.2,286047006.2,N
1550252735.0,286047000.6,N
1550252735.9,286047000.6,N
1550252755.8,286046998.4,N
1550252775.6,286046999.5,N
1550252795.4,286047003.9,N
1550252815.3,286047002.3,N
1550252835.1,286047002.6,N
1550252855.9,286047001.3,N
1550252875.7,286047001.5,N
1550252895.5,286047000.0,N
1550252915.4,286047004.2,N
1550252935.2,286047002.9,N
1550252955.1,286047003.2,N
1550252956.0,286047003.2,N
1550252975.8,286047003.1,N
1550252995.6,286047006.9,Y
1550253015.5,286047003.5,P
1550253035.3,286047000.1,N
1550253055.2,286047001.1,N
1550253075.9,286047002.2,N
1550253095.7,286047000.1,N
1550253115.6,286047001.7,N
1550253135.4,286047005.5,Y
1550253155.3,286047003.1,P
1550253175.1,286047003.6,P
1550253176.0,286047003.6,P
1550253195.8,286047003.8,Y
1550253215.7,286047002.7,P
1550253235.5,286047002.6,P
1550253255.4,286047000.1,N
1550253275.2,286047002.0,N
1550253295.0,286046996.5,Y
1550253295.9,286046996.5,P
1550253315.8,286046990.3,P
1550253335.6,286046988.7,N
1550253355.4,286046997.6,N
1550253375.3,286047001.2,N
1550253395.1,286046999.3,N
1550253415.9,286047004.4,N
1550253435.7,286047003.0,N
1550253455.5,286047002.0,N
1550253475.4,286046998.9,N
1550253495.2,286046997.7,N
1550253515.1,286046996.9,N
1550253516.0,286046996.9,N
1550253535.8,286046999.4,N
1550253555.6,286047001.1,N
1550253575.5,286047005.5,N
1550253595.3,286047004.1,N
